Location: Imeni Kalinina
(51.0495°N, 71.5712°E)
Time: 09:20:49
(UTC+00:00)

Daily predictions for brighter satellites

Satellite Brightness Start Highest point End
(mag) Time Altitude Azimuth Time Altitude Azimuth Time Altitude Azimuth
Cosmos 482 Debris 2.4 12:00:01 10° W 12:01:51 57° N 12:03:29 12° E
COSMO-SKYMED 1 4.4 12:01:13 10° ENE 12:03:00 12° E 12:04:46 10° ESE
Cosmos 405 3.0 12:02:11 10° S 12:05:36 57° E 12:09:03 10° NNE
Okean-O 4.2 12:03:54 10° E 12:06:22 15° NE 12:08:49 10° NNE
Cosmos 389 Rocket 4.3 12:04:42 10° ESE 12:06:22 13° E 12:07:45 11° ENE
Meteor 1-27 4.4 12:02:22 10° SSW 12:07:59 79° WNW 12:13:44 10° N
USA 267 3.3 12:02:01 10° E 12:08:29 67° NNE 12:14:58 10° WNW
COSMOS 2428 2.8 12:02:51 10° SSW 12:08:33 71° ESE 12:14:17 10° NNE
Cosmos 1408 Rocket 4.0 12:04:14 10° NNW 12:08:37 67° W 12:12:57 10° S
Cosmos 2154 Rocket 4.1 12:02:42 10° N 12:08:59 61° ENE 12:15:15 10° SSE
AQUARIUS 4.3 12:05:07 10° SE 12:09:27 50° ENE 12:13:50 10° N
Cosmos 1125 Rocket 3.6 12:05:47 10° NNW 12:10:56 57° ENE 12:16:03 10° SE
MOS 1-B 4.5 12:05:44 10° SSE 12:11:32 84° WSW 12:17:24 10° NNW
Sich 1 3.7 12:08:22 10° N 12:12:22 32° ENE 12:16:18 10° SE
Cosmos 2278 Rocket 2.2 12:07:33 10° NNW 12:13:17 84° ENE 12:18:58 10° SSE
PSLV R/B 4.3 12:09:19 10° S 12:13:26 68° WSW 12:17:31 10° NNW
Cosmos 2208 Rocket 4.0 12:10:21 10° SSW 12:15:36 75° ESE 12:20:59 10° NNE
Cosmos 2341 Rocket 4.4 12:11:34 10° N 12:17:28 41° ENE 12:23:22 10° SE
Okean O Rocket 1.6 12:13:15 10° SSE 12:17:32 60° ENE 12:21:52 10° N
Cosmos 1842 Rocket 3.5 12:13:41 10° S 12:18:00 84° ESE 12:22:22 10° NNE
Cosmos 1606 3.9 12:17:18 10° SE 12:20:25 23° E 12:23:32 10° NE
Cosmos 724 4.4 12:16:14 10° SSW 12:22:06 73° SE 12:28:07 10° NE
NOSS 0 Rocket 4.2 12:16:30 10° S 12:22:29 51° ESE 12:28:29 10° NE
Helios 1A Rocket 4.3 12:20:11 10° E 12:22:51 17° ENE 12:25:31 10° NNE
Cosmos 1805 Rocket 3.7 12:18:31 10° N 12:22:54 51° ENE 12:27:14 10° SSE
CRYOSAT 2 4.5 12:21:48 10° NNE 12:26:36 53° E 12:31:23 10° SSE
Cosmos 2360 Rocket 3.4 12:21:35 10° WSW 12:26:49 38° NW 12:32:03 10° NNE
Cosmos 540 Rocket 3.8 12:23:04 10° SW 12:28:10 67° WNW 12:33:18 10° NNE
Cosmos 1666 Rocket 4.3 12:25:02 10° N 12:28:57 31° ENE 12:32:53 10° SE
SL-24 R/B - RUBIN 2 4.5 12:23:54 10° NW 12:30:23 82° SW 12:36:08 10° SE
Cosmos 2285 Rocket 4.5 12:26:03 10° NNW 12:32:03 39° NE 12:37:59 10° ESE
Cosmos 1607 4.5 12:25:53 10° WSW 12:32:09 59° NW 12:38:31 10° NE
Cosmos 1151 Rocket 4.4 12:29:27 10° SE 12:32:16 17° E 12:32:42 17° ENE
Cosmos 1356 3.9 12:29:24 10° N 12:32:36 35° ENE 12:35:47 10° SE
ISS -2.4 12:29:57 10° SSW 12:32:51 27° SSE 12:34:40 17° E
NOAA 12 4.1 12:28:03 10° SSE 12:33:24 88° ENE 12:38:46 10° NNW
Cosmos 2219 Rocket 2.5 12:29:18 10° SW 12:34:56 70° WNW 12:40:36 10° NNE
Cosmos 2327 Rocket 4.5 12:29:17 10° N 12:35:26 90° E 12:41:39 10° S
Cosmos 1862 3.6 12:33:26 10° NNW 12:37:29 72° W 12:41:29 10° S
CZ-4B R/B 2.0 12:37:49 22° NE 12:39:06 30° E 12:41:52 10° SSE
CZ-4B R/B 3.3 12:34:05 10° SSE 12:39:27 78° WSW 12:44:47 10° NNW
Cosmos 841 Rocket 4.1 12:34:36 10° SW 12:39:45 57° WNW 12:44:54 10° NNE
Cosmos 1980 Rocket 4.4 12:39:28 10° NW 12:41:27 12° NNW 12:43:27 10° N
SL-8 Rocket 4.2 12:36:33 10° N 12:42:31 47° ENE 12:48:31 10° SE
SL-16 R/B 4.2 12:38:38 10° W 12:42:46 20° NW 12:46:55 10° NNE
Envisat 4.0 12:38:01 10° S 12:42:56 50° W 12:47:54 10° NNW
USA 281 3.4 12:37:39 10° SE 12:43:56 51° NE 12:50:16 10° NNW
Cosmos 2237 Rocket 2.3 12:38:39 10° S 12:44:07 55° ESE 12:48:54 14° NE
Landsat 5 4.0 12:41:33 10° N 12:45:51 64° WNW 12:50:15 10° SSW
NOAA 11 4.1 12:41:03 10° SSE 12:46:28 78° ENE 12:51:56 10° NNW
FengYun 1-2 T 4.2 12:41:41 10° SSE 12:47:14 83° ENE 12:52:48 10° NNW
ERS-2 2.6 12:45:59 19° NE 12:48:10 38° E 12:51:36 10° S
SMAP 3.5 12:43:42 10° S 12:48:19 66° WSW 12:53:00 10° NNW
H-2A R/B 2.1 12:44:58 10° NNE 12:49:08 76° WNW 12:53:20 10° SSW
CZ-2D R/B 3.7 12:47:22 10° SE 12:50:53 36° ENE 12:54:26 10° N
SKYMED 2 4.3 12:49:04 18° NE 12:51:36 33° E 12:55:31 10° SSE
Cosmos 2181 Rocket 4.4 12:45:43 10° SSE 12:51:39 41° E 12:57:32 10° NNE
CZ-4 R/B 2.1 12:50:17 20° ESE 12:52:03 29° ENE 12:55:31 10° N
Meteor 2-12 Rocket 4.4 12:47:21 10° N 12:53:33 77° ENE 12:59:41 10° SSE
H-2A R/B 2.9 12:50:33 14° ESE 12:54:07 28° ENE 12:58:29 10° N
Cosmos 2369 Rocket 3.1 12:49:51 10° NNW 12:54:46 28° NE 12:56:41 23° ENE
CSL-04 Rocket 4.4 12:56:48 21° E 12:58:59 28° ENE 13:03:29 10° N
Cosmos 1633 Rocket 3.2 12:55:43 10° N 13:00:00 49° ENE 13:04:14 10° SSE
Cosmos 1980 3.6 12:56:32 10° SSW 13:02:12 77° ESE 13:06:52 16° NNE
Cosmos 1939 Rocket 2.6 13:00:55 10° SSE 13:04:45 71° ENE 13:08:39 10° N
MOS 1 Rocket 4.4 13:05:52 27° ENE 13:06:36 28° E 13:11:15 10° SSE
ADEOS Rocket 4.3 13:00:41 10° N 13:07:59 54° WNW 13:15:30 10° SW
CREW DRAGON DEMO-1 DEB 3.1 13:09:06 10° W 13:12:03 58° SSW 13:12:37 47° SSE
Cosmos 2221 4.4 13:12:02 10° SW 13:15:53 30° WNW 13:19:45 10° N
USA 215 3.4 13:13:09 27° ENE 13:16:52 61° SE 13:23:20 10° SW
Cosmos 2297 3.6 13:14:32 10° NNW 13:20:15 80° ENE 13:25:58 10° SSE
Cosmos 1943 Rocket 2.2 13:19:01 10° NNW 13:24:28 55° NE 13:26:54 32° ESE
Cosmos 836 Rocket 4.5 13:19:25 10° SSW 13:24:43 89° ESE 13:28:25 20° NNE
Cosmos 2218 Rocket 3.8 13:21:52 10° N 13:28:03 79° ENE 13:34:12 10° SSE
Cosmos 2322 Rocket 4.5 13:28:16 10° WNW 13:31:23 15° NNW 13:34:30 10° N
YAOGAN 1 2.5 13:29:53 35° SE 13:31:32 62° ENE 13:35:50 10° N
SL-16 R/B 2.4 13:26:26 10° S 13:31:51 49° ESE 13:33:01 42° ENE
NOAA 15 4.5 13:27:45 10° SSE 13:33:00 69° ENE 13:38:16 10° N
ARGOS 3.5 13:33:58 42° ENE 13:33:59 42° ENE 13:39:04 10° N
CZ-2C R/B 2.8 13:28:58 10° SSE 13:34:05 74° ENE 13:38:59 10° N
Cosmos 44 3.4 13:29:02 10° NW 13:34:19 89° NE 13:37:11 29° SE
Cosmos 1867 3.6 13:29:25 10° SSW 13:34:44 57° ESE 13:35:53 47° E
Cosmos 1470 Rocket 3.4 13:30:55 10° N 13:35:14 63° ENE 13:35:28 62° E
Meteor 1-26 Rocket 4.4 13:30:09 10° S 13:36:01 58° E 13:40:38 17° NNE
Cosmos 2366 rocket 3.9 13:33:07 10° N 13:39:23 90° E 13:45:32 10° S
COSMO-SKYMED 1 2.5 13:37:40 30° NNE 13:39:48 88° WNW 13:44:09 10° SSW
Cosmos 389 Rocket 3.3 13:37:18 10° SSW 13:40:38 49° WNW 13:41:37 36° NNW
Cosmos 1933 3.3 13:37:04 10° S 13:41:06 86° WNW 13:42:03 52° N
SJ-11-01 4.3 13:41:44 57° ENE 13:41:44 57° ENE 13:46:09 10° N
Okean-O 2.5 13:37:46 10° SSE 13:42:13 90° WNW 13:46:41 10° NNW
Cosmos 1932 4.5 13:37:02 10° SW 13:43:35 88° NW 13:46:41 34° NE
PSLV R/B 4.1 13:47:42 60° S 13:47:42 60° S 13:51:04 10° SSW
Cosmos 2333 Rocket 4.0 13:43:16 10° W 13:48:00 26° NW 13:52:12 12° NNE
USA 267 3.6 13:46:59 20° SE 13:51:35 62° SW 13:58:05 10° WNW
EO 1 Delta rocket 4.2 13:46:52 10° N 13:51:59 88° ESE 13:58:19 10° S
COSMOS 2428 4.4 13:48:24 10° WSW 13:53:22 29° NW 13:57:29 14° NNE
Okean O Rocket 4.5 13:51:19 10° SW 13:54:18 18° W 13:57:18 10° NW
Cosmos 1606 4.3 13:52:22 10° SW 13:55:57 35° WNW 13:58:36 16° NNW
Helios 1A Rocket 3.3 13:54:59 21° S 13:57:36 62° WSW 14:01:37 10° NNW
ISS -1.6 14:06:01 10° WSW 14:07:37 26° WSW 14:07:37 26° WSW
Cosmos 1151 Rocket 3.5 14:05:10 10° SSW 14:09:24 57° WNW 14:09:36 56° WNW
CZ-4B R/B 3.9 14:10:58 18° WNW 14:11:11 18° WNW 14:13:20 10° WSW
Meteor 1-5 Rocket 4.4 14:08:25 10° N 14:13:31 61° NNE 14:13:31 61° NNE
Cosmos 1328 Rocket 4.2 14:10:38 10° SSW 14:14:23 53° WSW 14:14:23 53° WSW
CSL-04 Debris 4.2 14:12:42 37° S 14:14:59 80° WSW 14:20:32 10° NNW
Cosmos 2219 Rocket 4.3 14:15:51 10° W 14:19:57 20° NW 14:22:59 14° N
Lacrosse 5 rocket 3.9 14:16:36 10° SSW 14:16:49 11° SSW 14:16:49 11° SSW
CZ-4 R/B 3.1 14:26:19 29° WSW 14:27:02 31° W 14:30:38 10° NNW
Cosmos 2237 Rocket 3.6 14:23:21 10° WSW 14:28:27 34° NW 14:30:45 25° N
USA 281 4.3 14:22:22 10° S 14:28:33 43° WSW 14:34:47 10° NW
H-2A R/B 2.7 14:31:10 34° SSW 14:33:17 55° W 14:38:26 10° NNW
CSL-04 Rocket 4.2 14:38:27 52° SW 14:39:04 55° W 14:44:18 10° NNW
Cosmos 2369 Rocket 2.5 14:33:39 10° NNW 14:38:31 62° WNW 14:38:31 62° WNW
Cosmos 1821 Rocket 4.1 14:35:38 10° NNW 14:41:48 73° W 14:41:59 73° WSW
MOS 1 Rocket 4.3 14:45:10 54° WNW 14:45:10 54° WNW 14:50:22 10° SW
USA 215 3.5 15:00:30 65° NW 15:00:30 65° NW 15:06:28 10° W
Cosmos 1943 Rocket 3.7 15:03:12 10° NW 15:07:57 30° WSW 15:08:30 29° WSW
SL-16 R/B 3.6 15:10:54 10° WSW 15:14:57 34° WNW 15:14:57 34° WNW
CENTAUR R/B 3.9 22:09:44 46° NE 22:09:44 46° NE 22:16:59 10° ESE
USA 238 DEB 4.4 22:38:39 54° E 22:38:39 54° E 22:44:34 10° ESE
USA 238 4.4 22:38:44 54° E 22:38:44 54° E 22:44:39 10° ESE
Cosmos 2297 Rocket 4.1 22:41:24 23° NE 22:41:24 23° NE 22:43:27 10° NNE
ATLAS 5 CENTAUR R/B 3.5 23:11:09 48° ESE 23:11:09 48° ESE 23:13:50 10° ENE
Cosmos 1603 4.4 23:15:23 49° NE 23:15:25 49° NE 23:20:52 10° SE
ATLAS 3B R/B 3.6 23:23:29 34° N 23:25:20 41° NNE 23:31:57 10° E
Cosmos 1943 3.8 23:25:32 49° NNE 23:26:21 53° NE 23:31:56 10° SE
ATLAS CENTAUR R/B 3.8 23:32:29 15° NE 23:32:29 15° NE 23:34:00 10° ENE
Cosmos 1745 Rocket 4.3 23:26:14 10° S 23:32:26 67° E 23:38:44 10° NNE
Cosmos 2082 3.8 23:43:04 68° N 23:43:04 68° N 23:48:10 10° NNE
NOSS 3-2 (C) 3.9 23:40:55 55° NW 23:42:53 86° SW 23:51:21 10° SE
ALOS 2.8 23:39:50 10° NNE 23:44:28 57° E 23:46:39 29° SSE
ADEOS 4.2 23:40:33 10° NNE 23:45:42 55° E 23:50:49 10° S
Cosmos 2227 Rocket 3.1 23:49:00 36° N 23:49:00 36° N 23:52:45 10° NNE
SKYMED 2 4.4 23:47:13 10° SE 23:51:24 49° ENE 23:52:48 35° NNE
Cosmos 1354 Rocket 4.3 23:53:13 55° N 23:53:13 55° N 23:57:27 10° NNE
SL-4 R/B 3.3 23:52:55 35° SE 23:52:55 35° SE 23:55:53 10° E
Gbstr 26 Del rocket 3.9 23:53:45 40° E 23:53:45 40° E 23:56:20 10° E
Cosmos 2219 4.3 23:56:17 30° NNW 23:56:17 30° NNW 23:59:56 10° NNE
